Location: Caualo
(45.5667°N, 10.8667°E)
Time: 00:32:35
(UTC+00:00)

In-Cosmos 22 Rocket - Pass Details

Date: 09 October 2020
Orbit: 790 x 889 km, 81.2° (Epoch: 27 October)

Event Time Altitude Azimuth Distance (km) Brightness Sun altitude
Rises 19:16:43 0° 354° (N) 3,310 7.6 -27.7°
Reaches altitude 10° 19:19:14 10° 2° (N) 2,370 6.7 -28.1°
Enters shadow 19:21:38 25° 17° (NNE) 1,570 5.6 -28.5°
